This demonstration page uses our WeatherBlox Daily Observations layout. Learn more.

Left ArrowRight Arrow

Hourly Observations for October 5, 2019

Temp ( °F °C ) Dew Point ( °F °C ) Humidity (%) Winds ( mph kmh ) Pressure ( in mb ) Visibility ( mi km ) Precip ( " mm )
12:53 am 00:53 Clear 70 21.1 65 18.3 84 84 NNW 3 6 29.98 1015 10 16 0.00 0.00
1:53 am 01:53 Clear 75 23.9 64 17.8 69 69 Calm 29.98 1015 10 16 0.00 0.00
2:53 am 02:53 Clear 73 22.8 65 18.3 76 76 ENE 3 6 29.97 1015 10 16 0.00 0.00
3:53 am 03:53 Clear 73 22.8 64 17.8 74 74 NNE 3 6 29.96 1015 10 16 0.00 0.00
4:53 am 04:53 Clear 75 23.9 61 16.1 62 62 NE 7 11 29.96 1015 10 16 0.00 0.00
5:53 am 05:53 Clear 76 24.4 59 15 56 56 ENE 8 13 29.98 1015 10 16 0.00 0.00
6:53 am 06:53 Clear 75 23.9 59 15 58 58 ENE 9 15 30.00 1016 10 16 0.00 0.00
7:53 am 07:53 Mostly Cloudy 75 23.9 61 16.1 62 62 ENE 9 15 30.03 1017 10 16 0.00 0.00
8:53 am 08:53 Partly Cloudy 76 24.4 64 17.8 67 67 E 13 20 30.05 1018 10 16 0.00 0.00
9:53 am 09:53 Partly Cloudy 78 25.6 65 18.3 64 64 ENE 16 26 30.07 1018 10 16 0.00 0.00
10:53 am 10:53 Mostly Sunny 80 26.7 67 19.4 64 64 E 12 19 30.08 1019 10 16 0.00 0.00
11:53 am 11:53 Mostly Sunny 80 26.7 66 18.9 62 62 E 16 26 30.10 1019 10 16 0.00 0.00
12:19 pm 12:19 Mostly Cloudy 80 26.7 67 19.4 64 64 E 14 22 30.09 1019 10 16 0.00 0.00
12:53 pm 12:53 Cloudy 79 26.1 67 19.4 67 67 ENE 15 24 30.10 1019 10 16 0.00 0.00
1:53 pm 13:53 Cloudy 77 25 65 18.3 66 66 E 14 22 30.08 1019 10 16 0.00 0.00
2:53 pm 14:53 Mostly Cloudy 81 27.2 65 18.3 58 58 ENE 15 24 30.06 1018 10 16 0.00 0.00
3:22 pm 15:22 Mostly Cloudy 81 27.2 65 18.3 58 58 ENE 12 19 30.03 1017 10 16 0.00 0.00
3:53 pm 15:53 Mostly Cloudy 81 27.2 65 18.3 58 58 ENE 16 26 30.04 1017 10 16 0.00 0.00
4:53 pm 16:53 Sunny 80 26.7 64 17.8 58 58 ENE 15 24 30.05 1018 10 16 0.00 0.00
5:53 pm 17:53 Partly Cloudy 74 23.3 63 17.2 69 69 ENE 18 30 30.07 1018 10 16 0.00 0.00
6:01 pm 18:01 Mostly Cloudy 74 23.3 62 16.7 67 67 ENE 17 28 30.08 1019 10 16 0.00 0.00
6:53 pm 18:53 Cloudy 72 22.2 62 16.7 71 71 ENE 13 20 30.09 1019 10 16 0.00 0.00
7:53 pm 19:53 Cloudy 70 21.1 61 16.1 73 73 E 12 19 30.11 1020 10 16 0.00 0.00
8:53 pm 20:53 Cloudy 69 20.6 61 16.1 76 76 ENE 10 17 30.14 1021 10 16 0.00 0.00
9:53 pm 21:53 Cloudy 68 20 61 16.1 78 78 ENE 12 19 30.14 1021 10 16 0.00 0.00
10:53 pm 22:53 Cloudy 68 20 61 16.1 78 78 E 10 17 30.14 1021 10 16 0.00 0.00
11:25 pm 23:25 Cloudy 68 20 61 16.1 78 78 E 7 11 30.16 1021 10 16 0.00 0.00
11:53 pm 23:53 Cloudy 67 19.4 61 16.1 81 81 ENE 15 24 30.14 1021 10 16 0.00 0.00

Powered by AerisWeather